Home > Time Zones > World Clock > Weather > Peru > Lima > Past weeks

Flag for Peru Weather past 2 weeks in Lima, Lima, Peru

Now
64 °F

Mostly cloudy.


Feels Like: 64 °F
Forecast: N/A
Wind: 9 mph from South

Location: Lima-Callao / Aerop. Internacional Jorgechavez

Current Time: Aug 2, 2015 at 6:12:01 PM

Latest Report: Aug 2, 2015 at 5:00 PM


Visibility: N/A

Pressure: 29.86 "Hg

Humidity: 88%

Dew point: 61 °F

Location of LimaLocation

Historic Weather in Lima — Graph

°F

Lima temperature yesterday

Maximum temperature yesterday: 66 °F (at 11:00 AM)
Minimum temperature yesterday: 61 °F (at 6:00 AM)
Average temperature yesterday: 64 °F

Past Weeks' High & Low Weather Summary

 TemperatureHumidityPressure
High72 °F (Jul 20, 1:00 PM)100% (Aug 1, 6:00 AM)30.09 "Hg (Aug 1, 6:00 AM)
Low61 °F (Jul 28, 1:00 AM)61% (Jul 20, 2:00 PM)29.83 "Hg (Jul 25, 3:00 PM)
Average65 °F81%29.96 "Hg
* Reported Jul 18 5:00 PM — Aug 2 5:00 PM, Lima, Weather by CustomWeather, © 2015

Note: Actual official high and low records may vary slightly from our data, if they occured in-between our weather recording intervals... More about our weather records

Advertising

Lima weather history for previous 24 hours

 ConditionsComfort  
Time TempWeatherWind HumidityBarometerVisibility
5:00 PM
Sun, Aug 2
64 °FMostly cloudy.9 mph88%29.86 "HgN/A
4:00 PM66 °FMostly cloudy.7 mph78%29.86 "HgN/A
3:00 PM64 °FMostly cloudy.8 mph83%29.89 "HgN/A
2:00 PM64 °FPartly sunny.7 mph83%29.92 "HgN/A
1:00 PM64 °FOvercast.9 mph83%29.92 "HgN/A
12:00 PM66 °FMore clouds than sun.8 mph78%29.95 "HgN/A
11:00 AM66 °FMore clouds than sun.6 mph78%29.95 "HgN/A
10:00 AM64 °FMore clouds than sun.7 mph83%29.98 "HgN/A
9:00 AM64 °FOvercast.5 mph83%29.95 "HgN/A
8:00 AM64 °FOvercast.5 mph83%29.95 "HgN/A
7:00 AM64 °FOvercast.5 mph88%29.92 "Hg5 mi
6:00 AM63 °FOvercast.3 mph94%29.89 "HgN/A
5:00 AM63 °FOvercast.3 mph94%29.89 "Hg5 mi
4:00 AM63 °FOvercast.3 mph94%29.89 "Hg4 mi
3:00 AM63 °FOvercast.3 mph94%29.89 "HgN/A
2:00 AM63 °FOvercast.3 mph94%29.92 "HgN/A
1:00 AM64 °FOvercast.3 mph83%29.92 "HgN/A
12:00 AM64 °FOvercast.3 mph83%29.95 "HgN/A
11:00 PM
Sat, Aug 1
64 °FOvercast.3 mph83%29.95 "HgN/A
10:00 PM64 °FOvercast.5 mph83%29.95 "HgN/A
9:00 PM64 °FOvercast.6 mph83%29.92 "HgN/A
8:00 PM64 °FOvercast.7 mph78%29.92 "HgN/A
7:00 PM64 °FOvercast.7 mph78%29.92 "HgN/A
6:00 PM64 °FOvercast.6 mph83%29.89 "HgN/A
Weather by CustomWeather, © 2015

See weather overviewHow to use our weather pages